This demonstration page uses our WeatherBlox Daily Observations layout. Learn more.

Hourly Observations for June 13, 2016

Temp ( °F °C ) Dew Point ( °F °C ) Humidity (%) Winds ( mph kmh ) Pressure ( in mb ) Visibility ( mi km ) Precip ( " mm )
12:15 am 00:15 Clear 73 22.5 61 16.1 67 67 NNW 6 9 29.94 1014 10 16.0934 0 0
12:35 am 00:35 Clear 73 22.5 61 16 67 67 NNW 7 11 29.94 1014 10 16.0934 0 0
12:55 am 00:55 Clear 73 22.7 59 15 62 62 N 5 7 29.94 1014 10 16.0934 0 0
1:15 am 01:15 Clear 73 22.5 59 14.9 62 62 Calm 29.94 1014 10 16.0934 0 0
1:35 am 01:35 Clear 73 22.5 59 15 63 63 N 3 6 29.94 1014 10 16.0934 0 0
1:55 am 01:55 Clear 71 21.7 60 15.4 68 68 NNE 3 6 29.94 1014 10 16.0934 0 0
2:15 am 02:15 Clear 71 21.8 60 15.7 68 68 E 5 7 29.94 1014 10 16.0934 0 0
2:35 am 02:35 Clear 71 21.8 61 15.9 69 69 E 3 6 29.94 1014 10 16.0934 0 0
2:55 am 02:55 Clear 71 21.5 61 16 71 71 NNE 5 7 29.94 1014 10 16.0934 0 0
3:15 am 03:15 Clear 72 22.1 60 15.7 67 67 NE 10 17 29.94 1014 10 16.0934 0 0
3:35 am 03:35 Mostly Cloudy with Rain 70 21.1 61 16.3 74 74 W 22 35 30 1016 7 11.26538 0 0
3:55 am 03:55 Mostly Cloudy 65 18.6 63 17.3 92 92 WNW 15 24 30 1016 7 11.26538 0.01 0.254
4:15 am 04:15 Cloudy with Rain 66 18.8 64 17.6 93 93 NW 9 15 30 1016 7 11.26538 0.03 0.762
4:35 am 04:35 Cloudy with Rain 66 19 64 18 94 94 NNW 8 13 30 1016 7 11.26538 0.09 2.286
4:55 am 04:55 Cloudy with Light Rain 67 19.2 64 18 93 93 NNW 8 13 30 1016 10 16.0934 0.12 3.048
5:15 am 05:15 Cloudy with Rain 66 19 64 17.7 92 92 N 12 19 29.97 1015 10 16.0934 0.02 0.508
5:35 am 05:35 Partly Cloudy 66 19 64 18 94 94 NNE 10 17 29.97 1015 10 16.0934 0.03 0.762
5:55 am 05:55 Clear 66 19.1 64 18 93 93 ENE 12 19 29.97 1015 10 16.0934 0.03 0.762
6:15 am 06:15 Sunny 67 19.3 64 17.7 91 91 NE 13 20 29.97 1015 10 16.0934 0 0
6:35 am 06:35 Sunny 67 19.5 64 17.5 88 88 NE 12 19 29.97 1015 10 16.0934 0 0
6:55 am 06:55 Sunny 67 19.5 63 17.2 87 87 NE 10 17 29.91 1013 10 16.0934 0 0
7:15 am 07:15 Sunny with Light Rain 67 19.5 63 17.1 86 86 NNE 10 17 29.97 1015 10 16.0934 0 0
7:35 am 07:35 Sunny 67 19.5 63 17.1 86 86 N 7 11 29.97 1015 10 16.0934 0 0
7:55 am 07:55 Sunny 67 19.3 63 17.2 88 88 N 5 7 29.97 1015 10 16.0934 0 0
8:15 am 08:15 Sunny 67 19.3 63 17.4 89 89 N 3 6 29.97 1015 10 16.0934 0 0
8:35 am 08:35 Sunny 67 19.7 64 17.7 88 88 NNE 5 7 29.91 1013 10 16.0934 0 0
8:55 am 08:55 Sunny 69 20.6 65 18.1 86 86 NW 5 7 29.91 1013 10 16.0934 0 0
9:15 am 09:15 Sunny 71 21.5 64 18 81 81 NW 5 7 29.91 1013 10 16.0934 0 0
9:35 am 09:35 Sunny 71 21.5 65 18.2 82 82 WNW 6 9 29.94 1014 10 16.0934 0 0
9:55 am 09:55 Sunny 72 22 64 18 78 78 NW 7 11 29.94 1014 10 16.0934 0 0
10:15 am 10:15 Sunny 72 22.1 64 17.9 77 77 WNW 6 9 29.94 1014 10 16.0934 0 0
10:35 am 10:35 Sunny 72 22.2 64 17.8 76 76 W 3 6 29.94 1014 10 16.0934 0 0
11:35 am 11:35 Sunny 74 23.5 65 18.1 72 72 Calm 29.91 1013 10 16.0934 0 0
11:55 am 11:55 Sunny 74 23.6 66 18.7 74 74 Calm 29.91 1013 10 16.0934 0 0
12:15 pm 12:15 Sunny 75 23.9 66 18.8 73 73 Calm 29.91 1013 10 16.0934 0 0
12:35 pm 12:35 Sunny 76 24.6 65 18.4 68 68 Calm 29.91 1013 10 16.0934 0 0
12:55 pm 12:55 Sunny 77 25.1 64 17.7 64 64 E 5 7 29.88 1012 10 16.0934 0 0
1:15 pm 13:15 Sunny 78 25.7 63 17 59 59 ENE 5 7 29.88 1012 10 16.0934 0 0
1:35 pm 13:35 Sunny 79 26 64 17.5 60 60 E 6 9 29.88 1012 10 16.0934 0 0
1:55 pm 13:55 Sunny 79 26 62 16.5 56 56 E 6 9 29.85 1011 10 16.0934 0 0
2:15 pm 14:15 Sunny 80 26.6 62 16.8 55 55 E 7 11 29.83 1010 10 16.0934 0 0
2:35 pm 14:35 Sunny 80 26.9 58 14.7 47 47 ENE 3 6 29.83 1010 10 16.0934 0 0
2:55 pm 14:55 Sunny 81 27.1 62 16.7 53 53 ESE 6 9 29.83 1010 10 16.0934 0 0
3:15 pm 15:15 Sunny 80 26.8 62 16.9 55 55 Calm 29.8 1009 10 16.0934 0 0
3:35 pm 15:35 Sunny 81 27.4 63 17 53 53 SE 6 9 29.8 1009 10 16.0934 0 0
3:55 pm 15:55 Sunny 81 27.4 61 16.1 50 50 Calm 29.8 1009 10 16.0934 0 0
4:15 pm 16:15 Sunny 82 27.7 62 16.6 51 51 SE 5 7 29.8 1009 10 16.0934 0 0
4:35 pm 16:35 Sunny 82 27.9 63 17.3 53 53 ESE 6 9 29.77 1008 10 16.0934 0 0
4:55 pm 16:55 Sunny 83 28.4 63 17 50 50 ESE 9 15 29.77 1008 10 16.0934 0 0
5:35 pm 17:35 Sunny 83 28.5 62 16.8 49 49 E 6 9 29.77 1008 10 16.0934 0 0
5:55 pm 17:55 Sunny 83 28.5 63 17 50 50 E 3 6 29.74 1007 10 16.0934 0 0
6:15 pm 18:15 Sunny 83 28.4 62 16.4 48 48 Calm 29.74 1007 10 16.0934 0 0
6:35 pm 18:35 Sunny 82 28 62 16.7 50 50 Calm 29.74 1007 10 16.0934 0 0
6:55 pm 18:55 Sunny 83 28.2 63 17.1 51 51 Calm 29.74 1007 10 16.0934 0 0
7:15 pm 19:15 Sunny 83 28.1 62 16.5 49 49 Calm 29.71 1006 10 16.0934 0 0
7:35 pm 19:35 Sunny 82 27.8 63 17.3 53 53 ESE 3 6 29.71 1006 10 16.0934 0 0
7:55 pm 19:55 Sunny 81 27.3 64 17.6 55 55 Calm 29.71 1006 10 16.0934 0 0
8:15 pm 20:15 Sunny 81 27.1 64 17.8 57 57 E 5 7 29.68 1005 10 16.0934 0 0
8:35 pm 20:35 Sunny 80 26.6 65 18.3 60 60 E 3 6 29.68 1005 10 16.0934 0 0
8:55 pm 20:55 Sunny 79 25.9 65 18.3 63 63 E 8 13 29.68 1005 10 16.0934 0 0
9:15 pm 21:15 Clear 77 25.1 65 18.2 66 66 E 8 13 29.68 1005 10 16.0934 0 0
9:35 pm 21:35 Clear 76 24.6 64 17.7 66 66 E 8 13 29.71 1006 10 16.0934 0 0
9:55 pm 21:55 Clear 75 24 64 17.8 68 68 E 8 13 29.71 1006 10 16.0934 0 0
10:15 pm 22:15 Clear 74 23.6 64 17.7 70 70 E 8 13 29.71 1006 10 16.0934 0 0
10:35 pm 22:35 Clear 75 23.7 63 17 66 66 E 9 15 29.74 1007 10 16.0934 0 0
10:55 pm 22:55 Clear 74 23.5 63 17 67 67 E 8 13 29.71 1006 10 16.0934 0 0
11:15 pm 23:15 Clear 74 23.6 63 17.2 67 67 E 6 9 29.71 1006 10 16.0934 0 0
11:35 pm 23:35 Clear 74 23.2 65 18.1 73 73 E 7 11 29.71 1006 10 16.0934 0 0
11:55 pm 23:55 Partly Cloudy 73 23 66 18.7 77 77 ESE 6 9 29.71 1006 10 16.0934 0 0

Powered by AerisWeather